Stündliche Wetter Cegla

Heute, 25 Oktober, Sonntag

Zeit Temperatur Niederschläge Wind Luftdruck Luftfeuchtigkeit
00:00 +11°C° 0 mm 1 m/S 741 mmHg 92%
01:00 +10°C° 0 mm 0 m/S 741 mmHg 92%
02:00 +11°C° 0 mm 1 m/S 741 mmHg 92%
03:00 +11°C° 0 mm 1 m/S 740 mmHg 93%
04:00 +10°C° 0 mm 1 m/S 740 mmHg 93%
05:00 +10°C° 0 mm 1 m/S 740 mmHg 93%
06:00 +10°C° 0 mm 1 m/S 740 mmHg 94%
07:00 +10°C° 0 mm 1 m/S 740 mmHg 94%
08:00 +12°C° 0 mm 2 m/S 740 mmHg 88%
09:00 +13°C° 0 mm 2 m/S 740 mmHg 83%
10:00 +14°C° 0 mm 3 m/S 740 mmHg 78%
11:00 +14°C° 0 mm 3 m/S 740 mmHg 75%
12:00 +16°C° 0 mm 3 m/S 740 mmHg 72%
13:00 +17°C° 0 mm 4 m/S 739 mmHg 69%
14:00 +16°C° 0 mm 3 m/S 739 mmHg 72%
15:00 +14°C° 0 mm 3 m/S 738 mmHg 75%
16:00 +13°C° 0 mm 3 m/S 738 mmHg 78%
17:00 +12°C° 0 mm 3 m/S 738 mmHg 80%
18:00 +12°C° 0 mm 4 m/S 738 mmHg 82%
19:00 +11°C° 0 mm 4 m/S 738 mmHg 85%
20:00 +11°C° 0 mm 4 m/S 738 mmHg 88%
21:00 +11°C° 0 mm 4 m/S 738 mmHg 91%
22:00 +11°C° 0 mm 3 m/S 737 mmHg 94%
23:00 +11°C° 0 mm 3 m/S 737 mmHg 94%

Morgen, 26 Oktober, Montag

Zeit Temperatur Niederschläge Wind Luftdruck Luftfeuchtigkeit
00:00 +11°C° 0 mm 3 m/S 737 mmHg 93%
01:00 +11°C° 0 mm 3 m/S 737 mmHg 93%
02:00 +10°C° 0 mm 3 m/S 736 mmHg 93%
03:00 +10°C° 0 mm 2 m/S 736 mmHg 94%
04:00 +10°C° 0 mm 2 m/S 736 mmHg 95%
05:00 +9°C° 0 mm 2 m/S 736 mmHg 94%
06:00 +9°C° 0 mm 2 m/S 736 mmHg 94%
07:00 +9°C° 0 mm 2 m/S 736 mmHg 94%
08:00 +12°C° 0 mm 2 m/S 735 mmHg 87%
09:00 +13°C° 0 mm 3 m/S 735 mmHg 81%
10:00 +14°C° 0 mm 3 m/S 735 mmHg 75%
11:00 +16°C° 0 mm 3 m/S 735 mmHg 70%
12:00 +17°C° 0 mm 3 m/S 735 mmHg 66%
13:00 +18°C° 0 mm 3 m/S 735 mmHg 62%
14:00 +17°C° 0 mm 3 m/S 735 mmHg 65%
15:00 +17°C° 0 mm 3 m/S 735 mmHg 68%
16:00 +16°C° 0 mm 3 m/S 734 mmHg 71%
17:00 +14°C° 0 mm 3 m/S 734 mmHg 73%
18:00 +14°C° 0 mm 3 m/S 735 mmHg 75%
19:00 +13°C° 0 mm 4 m/S 735 mmHg 76%
20:00 +13°C° 0 mm 4 m/S 735 mmHg 77%
21:00 +13°C° 0 mm 3 m/S 735 mmHg 78%
22:00 +13°C° 0 mm 3 m/S 735 mmHg 79%
23:00 +13°C° 0 mm 3 m/S 735 mmHg 80%

übermorgen, 27 Oktober, Dienstag

Zeit Temperatur Niederschläge Wind Luftdruck Luftfeuchtigkeit
00:00 +13°C° 0 mm 3 m/S 735 mmHg 81%
01:00 +14°C° 0 mm 2 m/S 735 mmHg 83%
02:00 +13°C° 0 mm 2 m/S 735 mmHg 84%
03:00 +13°C° 0 mm 2 m/S 735 mmHg 85%
04:00 +12°C° 0 mm 2 m/S 735 mmHg 86%
05:00 +12°C° 0 mm 2 m/S 736 mmHg 86%
06:00 +11°C° 0 mm 3 m/S 736 mmHg 86%
07:00 +11°C° 0 mm 3 m/S 736 mmHg 86%
08:00 +13°C° 0 mm 3 m/S 736 mmHg 80%
09:00 +14°C° 0 mm 3 m/S 736 mmHg 74%
10:00 +17°C° 0 mm 4 m/S 736 mmHg 68%
11:00 +18°C° 0 mm 4 m/S 736 mmHg 64%
12:00 +19°C° 0 mm 3 m/S 736 mmHg 59%
13:00 +20°C° 0 mm 3 m/S 736 mmHg 55%
14:00 +19°C° 0 mm 3 m/S 736 mmHg 60%
15:00 +18°C° 0 mm 3 m/S 736 mmHg 65%
16:00 +17°C° 0 mm 2 m/S 736 mmHg 70%
17:00 +16°C° 0 mm 2 m/S 736 mmHg 73%
18:00 +15°C° 0 mm 2 m/S 737 mmHg 77%
19:00 +13°C° 0 mm 3 m/S 737 mmHg 80%
20:00 +14°C° 0 mm 2 m/S 737 mmHg 81%
21:00 +13°C° 0 mm 2 m/S 737 mmHg 81%
22:00 +13°C° 0 mm 2 m/S 738 mmHg 81%
23:00 +13°C° 0 mm 2 m/S 738 mmHg 84%

, 28 Oktober, Mittwoch

Zeit Temperatur Niederschläge Wind Luftdruck Luftfeuchtigkeit
00:00 +12°C° 0 mm 2 m/S 738 mmHg 87%
01:00 +12°C° 0 mm 2 m/S 738 mmHg 89%
02:00 +12°C° 0 mm 2 m/S 739 mmHg 91%
03:00 +11°C° 0 mm 1 m/S 739 mmHg 93%
04:00 +11°C° 0 mm 1 m/S 739 mmHg 95%
05:00 +11°C° 0 mm 1 m/S 739 mmHg 95%
06:00 +10°C° 0 mm 1 m/S 739 mmHg 95%
07:00 +9°C° 0 mm 0 m/S 740 mmHg 95%
08:00 +11°C° 0 mm 1 m/S 740 mmHg 88%
09:00 +13°C° 0 mm 1 m/S 740 mmHg 82%
10:00 +14°C° 0 mm 1 m/S 740 mmHg 76%
11:00 +15°C° 0 mm 2 m/S 740 mmHg 73%
12:00 +16°C° 0 mm 2 m/S 740 mmHg 70%
13:00 +17°C° 0 mm 2 m/S 739 mmHg 66%
14:00 +16°C° 0 mm 2 m/S 739 mmHg 70%
15:00 +16°C° 0 mm 2 m/S 739 mmHg 74%
16:00 +15°C° 0 mm 1 m/S 739 mmHg 78%
17:00 +14°C° 0 mm 1 m/S 739 mmHg 79%
18:00 +14°C° 0 mm 1 m/S 739 mmHg 81%
19:00 +14°C° 0 mm 1 m/S 740 mmHg 82%
20:00 +13°C° 0 mm 1 m/S 740 mmHg 83%
21:00 +13°C° 0 mm 1 m/S 740 mmHg 84%
22:00 +13°C° 0 mm 1 m/S 740 mmHg 85%
23:00 +12°C° 0 mm 1 m/S 740 mmHg 87%

28 Oktober, Mittwoch

Zeit Temperatur Niederschläge Wind Luftdruck Luftfeuchtigkeit
00:00 +12°C° 0 mm 2 m/S 738 mmHg 87%
01:00 +12°C° 0 mm 2 m/S 738 mmHg 89%
02:00 +12°C° 0 mm 2 m/S 739 mmHg 91%
03:00 +11°C° 0 mm 1 m/S 739 mmHg 93%
04:00 +11°C° 0 mm 1 m/S 739 mmHg 95%
05:00 +11°C° 0 mm 1 m/S 739 mmHg 95%
06:00 +10°C° 0 mm 1 m/S 739 mmHg 95%
07:00 +9°C° 0 mm 0 m/S 740 mmHg 95%
08:00 +11°C° 0 mm 1 m/S 740 mmHg 88%
09:00 +13°C° 0 mm 1 m/S 740 mmHg 82%
10:00 +14°C° 0 mm 1 m/S 740 mmHg 76%
11:00 +15°C° 0 mm 2 m/S 740 mmHg 73%
12:00 +16°C° 0 mm 2 m/S 740 mmHg 70%
13:00 +17°C° 0 mm 2 m/S 739 mmHg 66%
14:00 +16°C° 0 mm 2 m/S 739 mmHg 70%
15:00 +16°C° 0 mm 2 m/S 739 mmHg 74%
16:00 +15°C° 0 mm 1 m/S 739 mmHg 78%
17:00 +14°C° 0 mm 1 m/S 739 mmHg 79%
18:00 +14°C° 0 mm 1 m/S 739 mmHg 81%
19:00 +14°C° 0 mm 1 m/S 740 mmHg 82%
20:00 +13°C° 0 mm 1 m/S 740 mmHg 83%
21:00 +13°C° 0 mm 1 m/S 740 mmHg 84%
22:00 +13°C° 0 mm 1 m/S 740 mmHg 85%
23:00 +12°C° 0 mm 1 m/S 740 mmHg 87%

29 Oktober, Donnerstag

Zeit Temperatur Niederschläge Wind Luftdruck Luftfeuchtigkeit
00:00 +12°C° 0 mm 2 m/S 740 mmHg 88%
01:00 +12°C° 0 mm 2 m/S 740 mmHg 89%
02:00 +10°C° 0 mm 2 m/S 740 mmHg 89%
03:00 +10°C° 0 mm 2 m/S 740 mmHg 88%
04:00 +10°C° 0 mm 2 m/S 740 mmHg 87%
05:00 +9°C° 0 mm 2 m/S 740 mmHg 87%
06:00 +9°C° 0 mm 2 m/S 741 mmHg 87%
07:00 +9°C° 0 mm 2 m/S 741 mmHg 87%
08:00 +10°C° 0 mm 2 m/S 741 mmHg 82%
09:00 +13°C° 0 mm 2 m/S 741 mmHg 76%
10:00 +13°C° 0 mm 3 m/S 741 mmHg 70%
11:00 +14°C° 0 mm 3 m/S 741 mmHg 65%
12:00 +15°C° 0 mm 4 m/S 741 mmHg 60%
13:00 +17°C° 0 mm 4 m/S 742 mmHg 54%
14:00 +15°C° 0 mm 4 m/S 742 mmHg 59%
15:00 +14°C° 0 mm 3 m/S 742 mmHg 63%
16:00 +14°C° 0 mm 2 m/S 742 mmHg 68%
17:00 +13°C° 0 mm 2 m/S 742 mmHg 70%
18:00 +13°C° 0 mm 2 m/S 743 mmHg 72%
19:00 +12°C° 0 mm 2 m/S 743 mmHg 74%
20:00 +11°C° 0 mm 3 m/S 743 mmHg 76%
21:00 +11°C° 0 mm 3 m/S 744 mmHg 79%
22:00 +10°C° 0 mm 3 m/S 744 mmHg 81%
23:00 +10°C° 0 mm 3 m/S 744 mmHg 82%

30 Oktober, Freitag

Zeit Temperatur Niederschläge Wind Luftdruck Luftfeuchtigkeit
00:00 +9°C° 0 mm 3 m/S 744 mmHg 83%
01:00 +9°C° 0 mm 3 m/S 744 mmHg 84%
02:00 +9°C° 0 mm 3 m/S 744 mmHg 84%
03:00 +9°C° 0 mm 3 m/S 744 mmHg 84%
04:00 +9°C° 0 mm 3 m/S 744 mmHg 84%
05:00 +9°C° 0 mm 3 m/S 744 mmHg 83%
06:00 +9°C° 0 mm 3 m/S 744 mmHg 82%
07:00 +8°C° 0 mm 4 m/S 744 mmHg 81%
08:00 +10°C° 0 mm 4 m/S 745 mmHg 77%
09:00 +10°C° 0 mm 5 m/S 745 mmHg 72%
10:00 +13°C° 0 mm 5 m/S 745 mmHg 67%
11:00 +13°C° 0 mm 5 m/S 745 mmHg 67%
12:00 +13°C° 0 mm 5 m/S 745 mmHg 67%
13:00 +14°C° 0 mm 4 m/S 745 mmHg 67%
14:00 +13°C° 0 mm 4 m/S 745 mmHg 69%
15:00 +13°C° 0 mm 3 m/S 745 mmHg 72%
16:00 +12°C° 0 mm 3 m/S 744 mmHg 74%
17:00 +12°C° 0 mm 3 m/S 745 mmHg 75%
18:00 +11°C° 0 mm 3 m/S 745 mmHg 76%
19:00 +11°C° 0 mm 3 m/S 745 mmHg 77%
20:00 +11°C° 0 mm 3 m/S 745 mmHg 77%
21:00 +12°C° 0 mm 2 m/S 745 mmHg 77%
22:00 +12°C° 0 mm 2 m/S 745 mmHg 77%
23:00 +10°C° 0 mm 2 m/S 745 mmHg 77%
Mehr zeigen